Flag for Taiwan Weather past 2 weeks in Taipei, Taiwan

Now
70 °F

Passing clouds.


Feels Like: 70 °F
Forecast: 68 / 82 °F
Wind: 12 mph from East

Location: Sungshan / Taipei


UV Index: 7 (High)

Visibility: N/A


Pressure: 29.92 "Hg

Humidity: 78%

Dew point: 63 °F

Location of TaipeiLocation

Historic Weather in Taipei

°F

Taipei temperature yesterday

Maximum temperature yesterday: 84 °F (at 12:00 PM)
Minimum temperature yesterday: 73 °F (at 6:00 AM)
Average temperature yesterday: 79 °F

Past Weeks' High & Low Weather Summary

 TemperatureHumidityPressure
High88 °F (Apr 11, 2:00 PM)94% (Apr 8, 3:00 AM)30.15 "Hg (Apr 8, 3:00 AM)
Low63 °F (Apr 6, 2:00 AM)33% (Apr 11, 2:00 PM)29.80 "Hg (Apr 12, 2:00 PM)
Average74 °F67%29.96 "Hg
* Reported Apr 5 6:00 PM — Apr 20 6:30 PM, Taipei, Weather by CustomWeather, © 2014

Note: Actual official high and low records may vary slightly from our data, if they occured in-between our weather recording intervals... More about our weather records

Advertising

Historic Weather Conditions — Data for Previous 24 hours

 ConditionsComfort  
Time TempWeatherWind HumidityBarometerVisibility
6:30 PM
Apr 20
70 °FPassing clouds.14 mph78%29.89 "HgN/A
6:00 PM70 °FPartly sunny.15 mph78%29.89 "HgN/A
5:30 PM70 °FPartly sunny.16 mph78%29.89 "HgN/A
5:00 PM70 °FPartly sunny.16 mph78%29.89 "HgN/A
4:30 PM70 °FPartly sunny.16 mph83%29.89 "HgN/A
4:00 PM70 °FPartly sunny.17 mph83%29.89 "HgN/A
3:30 PM70 °FPartly sunny.15 mph83%29.89 "HgN/A
3:00 PM72 °FPartly sunny.17 mph78%29.89 "HgN/A
2:30 PM72 °FPartly sunny.16 mph78%29.89 "HgN/A
2:00 PM72 °FPartly sunny.15 mph83%29.89 "HgN/A
1:30 PM72 °FPartly sunny.15 mph83%29.89 "HgN/A
1:00 PM73 °FScattered showers. Broken clouds.14 mph78%29.92 "HgN/A
12:30 PM72 °FLight rain. Partly sunny.13 mph83%29.92 "Hg6 mi
12:00 PM72 °FLight rain. Partly sunny.13 mph83%29.92 "Hg4 mi
11:30 AM72 °FLight rain. Partly sunny.13 mph83%29.92 "Hg4 mi
11:00 AM73 °FDrizzle. Partly sunny.13 mph78%29.92 "Hg6 mi
10:30 AM75 °FDrizzle. Partly sunny.13 mph78%29.92 "HgN/A
10:00 AM77 °FDrizzle. Partly sunny.9 mph74%29.92 "Hg5 mi
9:30 AM75 °FDrizzle. Partly sunny.6 mph78%29.92 "Hg6 mi
9:00 AM77 °FDrizzle. Partly sunny.9 mph74%29.92 "HgN/A
8:30 AM77 °FScattered showers. Partly sunny.8 mph74%29.89 "Hg6 mi
8:00 AM77 °FPartly sunny.No wind79%29.89 "Hg5 mi
7:30 AM77 °FPartly sunny.1 mph74%29.89 "Hg5 mi
7:00 AM77 °FPartly sunny.3 mph79%29.89 "Hg5 mi
6:30 AM77 °FBroken clouds.1 mph74%29.89 "Hg5 mi
6:00 AM75 °FPartly sunny.No wind78%29.86 "Hg5 mi
5:00 AM75 °FPartly cloudy.1 mph78%29.86 "Hg5 mi
4:00 AM75 °FPassing clouds.2 mph78%29.86 "Hg5 mi
3:00 AM75 °FPassing clouds.1 mph78%29.86 "Hg4 mi
2:00 AM75 °FPassing clouds.3 mph78%29.86 "Hg5 mi
1:00 AM75 °FPassing clouds.5 mph78%29.86 "Hg4 mi
12:00 AM77 °FPassing clouds.5 mph74%29.86 "Hg5 mi
11:30 PM
Apr 19
75 °FPassing clouds.6 mph83%29.86 "HgN/A
11:00 PM75 °FPassing clouds.5 mph78%29.86 "HgN/A
10:30 PM75 °FPassing clouds.6 mph78%29.86 "HgN/A
10:00 PM77 °FPassing clouds.5 mph74%29.86 "HgN/A
9:30 PM77 °FPassing clouds.6 mph74%29.86 "HgN/A
9:00 PM77 °FPassing clouds.6 mph74%29.86 "HgN/A
8:30 PM77 °FPassing clouds.7 mph74%29.86 "HgN/A
8:00 PM77 °FPassing clouds.3 mph74%29.86 "HgN/A
7:30 PM79 °FPassing clouds.3 mph61%29.83 "HgN/A
7:00 PM79 °FPassing clouds.2 mph61%29.83 "HgN/A
Weather by CustomWeather, © 2014

See weather overview